Regional Weather Roundup
Issued by NWS

Home | Current Version | Previous Version | Text Only | Print | Product List | Glossary Off
Versions: 1 2 3 4 5 6 7 8 9 10 11 12 13 14 15 16 17 18 19 20 21 22 23 24 25 26 27 28 29 30 31 32 33 34 35 36 37 38 39 40 41 42 43 44 45 46 47 48 49 50

000
ASUS43 KDMX 261407
RWRIA

WEATHER ROUNDUP FOR IOWA
NATIONAL WEATHER SERVICE DES MOINES IA
900 AM CDT SUN APR 26 2015

NOTE: "FAIR" INDICATES FEW OR NO CLOUDS BELOW 12,000 FEET WITH NO
SIGNIFICANT WEATHER AND/OR OBSTRUCTIONS TO VISIBILITY.

* - THESE STATIONS ARE NOT NWS STATIONS...THUS NOT UNDER NWS
QUALITY CONTROL.  THEY ALSO DO NOT REPORT WEATHER SUCH
AS PRECIPITATION OR FOG.

IAZ001>003-012>014-020>022-031>034-043>046-261500-
   NORTHWEST IOWA

CITY           SKY/WX    TMP DP  RH WIND       PRES   REMARKS
CARROLL *      SUNNY     46  37  71 E8        30.05R
CHEROKEE *     SUNNY     48  43  81 NE5       30.06R
DENISON *      SUNNY     48  41  76 E7        30.04R
LE MARS *      SUNNY     48  41  76 NE6       30.08R
ORANGE CITY *  SUNNY     46  37  71 E6        30.06R
SHELDON *      SUNNY     48  41  76 NE5       30.06R
SIOUX CITY     SUNNY     49  38  65 E9        30.07R
SPENCER        SUNNY     50  40  68 N6        30.06R
STORM LAKE *   SUNNY     48  39  71 E7        30.06R
$$

IAZ055>058-069>071-079>083-090>094-261500-
   SOUTHWEST IOWA

CITY           SKY/WX    TMP DP  RH WIND       PRES   REMARKS
ATLANTIC *     SUNNY     46  41  81 E9        30.04R
AUDUBON *      SUNNY     48  39  71 E12       30.05R
CLARINDA *     SUNNY     48  36  61 E14       30.03R
COUNCIL BLFS * SUNNY     46  45  93 E14       30.03R
CRESTON *      SUNNY     46  39  76 E15       30.02R
HARLAN  *      SUNNY     46  45  93 E12G17    30.07R
LAMONI         SUNNY     48  35  60 E9        30.01R
RED OAK *      SUNNY     48  37  66 E14       30.03R
SHENANDOAH *   SUNNY     48  41  76 E15       30.02R
$$

IAZ047>049-059>061-072>074-084-261500-
   CENTRAL IOWA

CITY           SKY/WX    TMP DP  RH WIND       PRES   REMARKS
AMES           SUNNY     47  35  63 E7        30.05R
ANKENY *       SUNNY     48  36  61 NE8       30.04R
CHARITON *     SUNNY     48  37  66 NE8       30.02R
DES MOINES     MOSUNNY   49  31  49 E12       30.04R
GRINNELL*      SUNNY     45  32  61 NE7       30.04S
KNOXVILLE *    SUNNY     46  32  57 NE8       30.02R
MARSHALLTOWN   SUNNY     46  28  49 E5        30.04R
PELLA *        SUNNY     48  39  71 NE8       30.04R
PERRY *          N/A     48  36  61 E6        30.04S
$$

IAZ004>006-015-016-023>025-035-036-261500-
   NORTH CENTRAL IOWA

CITY           SKY/WX    TMP DP  RH WIND       PRES   REMARKS
ALGONA *       SUNNY     45  41  87 CALM      30.06S
CLARION *      SUNNY     46  32  57 E9        30.06R
ESTHERVILLE    SUNNY     45  35  68 N7        30.06R
FORT DODGE *   SUNNY     46  37  71 E3        30.07R
MASON CITY     SUNNY     45  21  38 E7        30.08R
FOREST CITY *  SUNNY     43  23  45 E8        30.07R
IOWA FALLS *     N/A     46  28  49 E7        30.07R
$$

IAZ007>011-017>019-026>030-037>042-050>054-066-261500-
   NORTHEAST IOWA

CITY           SKY/WX    TMP DP  RH WIND       PRES   REMARKS
CEDAR RAPIDS   SUNNY     43  28  55 NE10      30.03R
CHARLES CITY * SUNNY     45  25  45 E9        30.08R
CLINTON *      SUNNY     43  30  61 E10       30.05S
DECORAH *      SUNNY     41  23  48 VRB6      30.07R
DUBUQUE        SUNNY     42  27  55 NE12      30.04R
MONTICELLO *   SUNNY     43  30  61 NE7       30.04R
OELWEIN *      SUNNY     43  27  52 NE10      30.06R
WATERLOO       SUNNY     46  29  51 E8        30.06R
$$

IAZ064-065-067-068-078-261500-
   EAST CENTRAL IOWA

CITY           SKY/WX    TMP DP  RH WIND       PRES   REMARKS
DAVENPORT      SUNNY     43  30  60 E9        30.03R
IOWA CITY      SUNNY     46  29  51 NE7       30.04R
MT. PLEASANT * SUNNY     45  34  65 NE9       30.01R
MUSCATINE *    SUNNY     45  30  57 NE8       30.03R
QUAD CITIES    SUNNY     46  28  49 E12       30.02R
$$

IAZ062-063-075>077-085>089-095>099-261500-
   SOUTHEAST IOWA

CITY           SKY/WX    TMP DP  RH WIND       PRES   REMARKS
BURLINGTON     SUNNY     46  32  58 NE9       30.00R
FAIRFIELD *    SUNNY     46  32  57 NE12      30.02R
FORT MADISON * SUNNY     46  34  61 E7        30.01R
KEOKUK *       SUNNY     48  34  57 NE7       30.00R
OSKALOOSA *      N/A     45  34  65 NE9       30.03R
CENTERVILLE *  SUNNY     46  34  61 NE8       30.02R
OTTUMWA        SUNNY     46  35  65 NE9       30.02R
WASHINGTON *   SUNNY     45  34  65 NE10      30.02R
$$

ABBREVIATIONS USED IN REMARKS
   TC - TEMPERATURES IN CELSIUS
  WCI - WIND CHILL INDEX
   HX - HEAT INDEX
  VSB - VISIBILITY
$$



USA.gov is the U.S. government's official web portal to all federal, state and local government web resources and services.